| time (UTC) | temp C | wind direction | speed KPH | gust KPH | rain 1hr cm | rain 24hr cm | rain mn cm | humidity % | barometer mb |
| 20260510163505 | 12 | 124 | 0.0 | 14.5 | 0.00 | 0.00 | 0.00 | 59 | 1015.1 |
| 20260510163015 | 12 | 272 | 4.8 | 16.1 | 0.00 | 0.00 | 0.00 | 59 | 1015.3 |
| 20260510162509 | 12 | 12 | 0.0 | 16.1 | 0.00 | 0.00 | 0.00 | 60 | 1015.2 |
| 20260510162010 | 12 | 293 | 0.0 | 4.8 | 0.00 | 0.00 | 0.00 | 61 | 1015.3 |
| 20260510161526 | 12 | 42 | 0.0 | 8.0 | 0.00 | 0.00 | 0.00 | 62 | 1015.4 |
| 20260510161005 | 12 | 81 | 0.0 | 8.0 | 0.00 | 0.00 | 0.00 | 62 | 1015.4 |
| 20260510160505 | 12 | 188 | 1.6 | 11.3 | 0.00 | 0.00 | 0.00 | 63 | 1015.5 |
| 20260510160005 | 12 | 45 | 1.6 | 11.3 | 0.00 | 0.00 | 0.00 | 63 | 1015.5 |
| 20260510155504 | 12 | 38 | 1.6 | 11.3 | 0.00 | 0.00 | 0.00 | 63 | 1015.5 |
| 20260510155014 | 12 | 57 | 3.2 | 11.3 | 0.00 | 0.00 | 0.00 | 63 | 1015.7 |
| 20260510154511 | 12 | 45 | 0.0 | 16.1 | 0.00 | 0.00 | 0.00 | 64 | 1015.8 |
| 20260510154006 | 12 | 70 | 0.0 | 16.1 | 0.00 | 0.00 | 0.00 | 63 | 1015.8 |
| 20260510153504 | 12 | 134 | 0.0 | 6.4 | 0.00 | 0.00 | 0.00 | 62 | 1015.8 |
| 20260510153014 | 12 | 79 | 0.0 | 16.1 | 0.00 | 0.00 | 0.00 | 64 | 1015.8 |
| 20260510152506 | 12 | 79 | 4.8 | 16.1 | 0.00 | 0.00 | 0.00 | 63 | 1015.9 |
| 20260510152010 | 12 | 108 | 0.0 | 8.0 | 0.00 | 0.00 | 0.00 | 64 | 1015.9 |
| 20260510151525 | 12 | 133 | 1.6 | 8.0 | 0.00 | 0.00 | 0.00 | 63 | 1016.0 |
| 20260510151012 | 12 | 33 | 0.0 | 8.0 | 0.00 | 0.00 | 0.00 | 63 | 1016.0 |
| 20260510150508 | 12 | 236 | 0.0 | 11.3 | 0.00 | 0.00 | 0.00 | 64 | 1016.1 |
| 20260510150023 | 12 | 79 | 1.6 | 11.3 | 0.00 | 0.00 | 0.00 | 65 | 1016.1 |
| 20260510145512 | 12 | 241 | 1.6 | 9.7 | 0.00 | 0.00 | 0.00 | 65 | 1016.2 |
| 20260510145004 | 12 | 44 | 1.6 | 12.9 | 0.00 | 0.00 | 0.00 | 65 | 1016.3 |
| 20260510144505 | 12 | 51 | 4.8 | 12.9 | 0.00 | 0.00 | 0.00 | 65 | 1016.4 |
| 20260510144005 | 12 | 68 | 0.0 | 9.7 | 0.00 | 0.00 | 0.00 | 65 | 1016.5 |
| 20260510143505 | 12 | 16 | 0.0 | 8.0 | 0.00 | 0.00 | 0.00 | 66 | 1016.4 |
| 20260510143012 | 12 | 35 | 0.0 | 19.3 | 0.00 | 0.00 | 0.00 | 66 | 1016.4 |
| 20260510142510 | 12 | 35 | 1.6 | 19.3 | 0.00 | 0.00 | 0.00 | 65 | 1016.4 |
| 20260510142008 | 12 | 233 | 1.6 | 9.7 | 0.00 | 0.00 | 0.00 | 66 | 1016.4 |
| 20260510141515 | 12 | 102 | 0.0 | 11.3 | 0.00 | 0.00 | 0.00 | 67 | 1016.5 |
| 20260510141009 | 12 | 133 | 1.6 | 11.3 | 0.00 | 0.00 | 0.00 | 66 | 1016.5 |
| 20260510140506 | 12 | 235 | 0.0 | 17.7 | 0.00 | 0.00 | 0.00 | 67 | 1016.5 |
| 20260510140019 | 12 | 158 | 4.8 | 17.7 | 0.00 | 0.00 | 0.00 | 67 | 1016.6 |
| 20260510135508 | 12 | 144 | 0.0 | 11.3 | 0.00 | 0.00 | 0.00 | 67 | 1016.5 |
| 20260510135007 | 12 | 103 | 0.0 | 17.7 | 0.00 | 0.00 | 0.00 | 67 | 1016.5 |
| 20260510134525 | 12 | 69 | 1.6 | 17.7 | 0.00 | 0.00 | 0.00 | 67 | 1016.6 |
| 20260510134010 | 12 | 124 | 1.6 | 12.9 | 0.00 | 0.00 | 0.00 | 67 | 1016.6 |
| 20260510133511 | 12 | 266 | 1.6 | 12.9 | 0.00 | 0.00 | 0.00 | 67 | 1016.6 |
| 20260510133006 | 12 | 127 | 1.6 | 11.3 | 0.00 | 0.00 | 0.00 | 68 | 1016.7 |
| 20260510132507 | 12 | 284 | 1.6 | 11.3 | 0.00 | 0.00 | 0.00 | 68 | 1016.6 |
| 20260510132008 | 12 | 37 | 0.0 | 11.3 | 0.00 | 0.00 | 0.00 | 69 | 1016.7 |
| 20260510131514 | 12 | 74 | 1.6 | 12.9 | 0.00 | 0.00 | 0.00 | 69 | 1016.7 |
| 20260510131007 | 12 | 64 | 1.6 | 14.5 | 0.00 | 0.00 | 0.00 | 68 | 1016.7 |
| 20260510130507 | 12 | 32 | 6.4 | 16.1 | 0.00 | 0.00 | 0.00 | 68 | 1016.9 |
| 20260510130025 | 12 | 51 | 0.0 | 16.1 | 0.00 | 0.00 | 0.00 | 69 | 1016.9 |
| 20260510125508 | 12 | 94 | 0.0 | 11.3 | 0.00 | 0.00 | 0.00 | 69 | 1016.9 |
| 20260510125009 | 12 | 30 | 1.6 | 9.7 | 0.00 | 0.00 | 0.00 | 70 | 1017.0 |
| 20260510124521 | 12 | 260 | 0.0 | 14.5 | 0.00 | 0.00 | 0.00 | 70 | 1017.0 |
| 20260510124010 | 12 | 35 | 0.0 | 14.5 | 0.00 | 0.00 | 0.00 | 71 | 1017.1 |
| 20260510123511 | 12 | 61 | 1.6 | 8.0 | 0.00 | 0.00 | 0.00 | 71 | 1017.1 |
| 20260510123025 | 12 | 34 | 1.6 | 11.3 | 0.00 | 0.00 | 0.00 | 71 | 1017.1 |
| 20260510122511 | 12 | 111 | 0.0 | 17.7 | 0.00 | 0.00 | 0.00 | 71 | 1017.3 |
| 20260510122011 | 12 | 120 | 0.0 | 17.7 | 0.00 | 0.00 | 0.00 | 70 | 1017.2 |
| 20260510121511 | 12 | 79 | 3.2 | 17.7 | 0.00 | 0.00 | 0.00 | 70 | 1017.2 |
| 20260510121006 | 12 | 46 | 1.6 | 16.1 | 0.00 | 0.00 | 0.00 | 69 | 1017.2 |
| 20260510120508 | 12 | 6 | 1.6 | 16.1 | 0.00 | 0.00 | 0.00 | 69 | 1017.2 |
| 20260510120016 | 12 | 52 | 4.8 | 16.1 | 0.00 | 0.00 | 0.00 | 68 | 1017.2 |
| 20260510115508 | 12 | 253 | 1.6 | 16.1 | 0.00 | 0.00 | 0.00 | 68 | 1017.2 |
| 20260510115010 | 12 | 32 | 6.4 | 16.1 | 0.00 | 0.00 | 0.00 | 67 | 1017.2 |
| 20260510114526 | 13 | 314 | 0.0 | 12.9 | 0.00 | 0.00 | 0.00 | 68 | 1017.2 |
| 20260510114011 | 13 | 49 | 4.8 | 12.9 | 0.00 | 0.00 | 0.00 | 66 | 1017.3 |
| 20260510113509 | 13 | 51 | 0.0 | 19.3 | 0.00 | 0.00 | 0.00 | 65 | 1017.3 |
| 20260510113033 | 13 | 315 | 8.0 | 19.3 | 0.00 | 0.00 | 0.00 | 64 | 1017.3 |
| 20260510112510 | 13 | 181 | 4.8 | 19.3 | 0.00 | 0.00 | 0.00 | 64 | 1017.4 |
| 20260510112009 | 13 | 49 | 6.4 | 19.3 | 0.00 | 0.00 | 0.00 | 64 | 1017.4 |
| 20260510111531 | 13 | 37 | 1.6 | 17.7 | 0.00 | 0.00 | 0.00 | 65 | 1017.4 |
| 20260510111012 | 13 | 78 | 4.8 | 17.7 | 0.00 | 0.00 | 0.00 | 64 | 1017.6 |
| 20260510110510 | 13 | 231 | 1.6 | 16.1 | 0.00 | 0.00 | 0.00 | 65 | 1017.5 |
| 20260510110034 | 13 | 75 | 3.2 | 14.5 | 0.00 | 0.00 | 0.00 | 64 | 1017.6 |
| 20260510105508 | 13 | 7 | 3.2 | 14.5 | 0.00 | 0.00 | 0.00 | 64 | 1017.5 |
| 20260510105008 | 13 | 359 | 1.6 | 14.5 | 0.00 | 0.00 | 0.00 | 64 | 1017.6 |
| 20260510104519 | 13 | 44 | 3.2 | 14.5 | 0.00 | 0.00 | 0.00 | 64 | 1017.6 |
| 20260510104009 | 13 | 238 | 0.0 | 9.7 | 0.00 | 0.00 | 0.00 | 66 | 1017.5 |
| 20260510103508 | 13 | 34 | 0.0 | 14.5 | 0.00 | 0.00 | 0.00 | 67 | 1017.6 |
| 20260510103023 | 13 | 191 | 0.0 | 17.7 | 0.00 | 0.00 | 0.00 | 67 | 1017.6 |
| 20260510102510 | 13 | 344 | 1.6 | 17.7 | 0.00 | 0.00 | 0.00 | 67 | 1017.6 |
| 20260510102013 | 13 | 8 | 1.6 | 16.1 | 0.00 | 0.00 | 0.00 | 66 | 1017.7 |
| 20260510101524 | 13 | 135 | 3.2 | 16.1 | 0.00 | 0.00 | 0.00 | 66 | 1017.7 |
| 20260510101011 | 13 | 55 | 1.6 | 16.1 | 0.00 | 0.00 | 0.00 | 65 | 1017.7 |
| 20260510100511 | 13 | 16 | 0.0 | 14.5 | 0.00 | 0.00 | 0.00 | 65 | 1017.7 |
| 20260510100033 | 13 | 4 | 0.0 | 8.0 | 0.00 | 0.00 | 0.00 | 67 | 1017.7 |
| 20260510095509 | 13 | 2 | 0.0 | 8.0 | 0.00 | 0.00 | 0.00 | 67 | 1017.7 |
| 20260510095008 | 12 | 57 | 0.0 | 8.0 | 0.00 | 0.00 | 0.00 | 68 | 1017.7 |
| 20260510094532 | 12 | 32 | 0.0 | 17.7 | 0.00 | 0.00 | 0.00 | 68 | 1017.8 |
| 20260510094011 | 12 | 42 | 3.2 | 20.9 | 0.00 | 0.00 | 0.00 | 68 | 1017.8 |
| 20260510093021 | 12 | 27 | 3.2 | 16.1 | 0.00 | 0.00 | 0.00 | 68 | 1017.8 |
| 20260510092510 | 12 | 62 | 3.2 | 19.3 | 0.00 | 0.00 | 0.00 | 68 | 1017.9 |
| 20260510092014 | 12 | 115 | 0.0 | 19.3 | 0.00 | 0.00 | 0.00 | 69 | 1017.9 |
| 20260510091521 | 12 | 248 | 0.0 | 19.3 | 0.00 | 0.00 | 0.00 | 70 | 1018.0 |
| 20260510091009 | 12 | 46 | 4.8 | 19.3 | 0.00 | 0.00 | 0.00 | 69 | 1017.9 |
| 20260510090511 | 12 | 305 | 1.6 | 20.9 | 0.00 | 0.00 | 0.00 | 69 | 1018.0 |
| 20260510090027 | 12 | 148 | 0.0 | 20.9 | 0.00 | 0.00 | 0.00 | 72 | 1018.1 |
| 20260510085512 | 12 | 108 | 3.2 | 12.9 | 0.00 | 0.00 | 0.00 | 72 | 1018.1 |
| 20260510085008 | 11 | 98 | 0.0 | 11.3 | 0.00 | 0.00 | 0.00 | 74 | 1018.1 |
| 20260510084528 | 11 | 20 | 0.0 | 14.5 | 0.00 | 0.00 | 0.00 | 74 | 1018.2 |
| 20260510084010 | 11 | 91 | 3.2 | 12.9 | 0.00 | 0.00 | 0.00 | 74 | 1018.3 |
| 20260510083511 | 11 | 40 | 1.6 | 16.1 | 0.00 | 0.00 | 0.00 | 74 | 1018.4 |
| 20260510083028 | 11 | 86 | 3.2 | 16.1 | 0.00 | 0.00 | 0.00 | 75 | 1018.3 |
| 20260510082511 | 11 | 72 | 0.0 | 16.1 | 0.00 | 0.00 | 0.00 | 76 | 1018.3 |
| 20260510082010 | 10 | 301 | 1.6 | 16.1 | 0.00 | 0.00 | 0.00 | 77 | 1018.3 |
| 20260510080510 | 10 | 26 | 0.0 | 11.3 | 0.00 | 0.00 | 0.00 | 78 | 1018.3 |
| 20260510080024 | 10 | 258 | 1.6 | 11.3 | 0.00 | 0.00 | 0.00 | 78 | 1018.3 |
| 20260510075510 | 10 | 9 | 0.0 | 8.0 | 0.00 | 0.00 | 0.00 | 79 | 1018.3 |
| 20260510075012 | 10 | 39 | 1.6 | 11.3 | 0.00 | 0.00 | 0.00 | 79 | 1018.3 |
| 20260510074534 | 10 | 221 | 1.6 | 16.1 | 0.00 | 0.00 | 0.00 | 79 | 1018.3 |
| 20260510074009 | 10 | 108 | 1.6 | 16.1 | 0.00 | 0.00 | 0.00 | 79 | 1018.3 |
| 20260510073508 | 10 | 41 | 1.6 | 16.1 | 0.00 | 0.00 | 0.00 | 80 | 1018.3 |
| 20260510073011 | 10 | 34 | 3.2 | 16.1 | 0.00 | 0.00 | 0.00 | 80 | 1018.3 |
| 20260510072505 | 10 | 27 | 0.0 | 3.2 | 0.00 | 0.00 | 0.00 | 80 | 1018.3 |
| 20260510072010 | 10 | 51 | 0.0 | 3.2 | 0.00 | 0.00 | 0.00 | 81 | 1018.3 |
| 20260510071524 | 10 | 35 | 0.0 | 12.9 | 0.00 | 0.00 | 0.00 | 81 | 1018.3 |
| 20260510071003 | 10 | 19 | 3.2 | 12.9 | 0.00 | 0.00 | 0.00 | 81 | 1018.2 |
| 20260510070503 | 10 | 49 | 1.6 | 11.3 | 0.00 | 0.00 | 0.00 | 82 | 1018.2 |
| 20260510070006 | 9 | 94 | 0.0 | 11.3 | 0.00 | 0.00 | 0.00 | 82 | 1018.2 |
| 20260510065504 | 9 | 15 | 1.6 | 11.3 | 0.00 | 0.00 | 0.00 | 82 | 1018.1 |
| 20260510065004 | 9 | 300 | 1.6 | 12.9 | 0.00 | 0.00 | 0.00 | 82 | 1018.1 |
| 20260510064505 | 9 | 51 | 1.6 | 12.9 | 0.00 | 0.00 | 0.00 | 82 | 1018.0 |
| 20260510064003 | 9 | 97 | 0.0 | 12.9 | 0.00 | 0.00 | 0.00 | 83 | 1018.1 |
| 20260510063503 | 9 | 30 | 1.6 | 12.9 | 0.00 | 0.00 | 0.00 | 83 | 1018.2 |
| 20260510063011 | 9 | 316 | 3.2 | 12.9 | 0.00 | 0.00 | 0.00 | 83 | 1018.2 |
| 20260510062506 | 9 | 81 | 0.0 | 11.3 | 0.00 | 0.00 | 0.00 | 84 | 1018.1 |
| 20260510062010 | 9 | 172 | 0.0 | 14.5 | 0.00 | 0.00 | 0.00 | 84 | 1018.0 |
| 20260510061516 | 9 | 46 | 0.0 | 14.5 | 0.00 | 0.00 | 0.00 | 84 | 1018.0 |
| 20260510061007 | 8 | 48 | 0.0 | 9.7 | 0.00 | 0.00 | 0.00 | 84 | 1018.0 |
| 20260510060509 | 8 | 200 | 3.2 | 9.7 | 0.00 | 0.00 | 0.00 | 84 | 1017.9 |
| 20260510060020 | 8 | 113 | 1.6 | 12.9 | 0.00 | 0.00 | 0.00 | 84 | 1017.9 |
| 20260510055510 | 8 | 39 | 3.2 | 14.5 | 0.00 | 0.00 | 0.00 | 84 | 1017.9 |
| 20260510055004 | 8 | 76 | 0.0 | 17.7 | 0.00 | 0.00 | 0.00 | 84 | 1017.9 |
| 20260510054506 | 8 | 106 | 4.8 | 17.7 | 0.00 | 0.00 | 0.00 | 84 | 1017.9 |
| 20260510054005 | 8 | 101 | 1.6 | 12.9 | 0.00 | 0.00 | 0.00 | 85 | 1017.9 |
| 20260510053503 | 8 | 30 | 0.0 | 9.7 | 0.00 | 0.00 | 0.00 | 85 | 1017.9 |
| 20260510053008 | 8 | 120 | 0.0 | 9.7 | 0.00 | 0.00 | 0.00 | 85 | 1017.9 |
| 20260510052506 | 8 | 245 | 0.0 | 6.4 | 0.00 | 0.00 | 0.00 | 85 | 1018.0 |
| 20260510052006 | 8 | 65 | 1.6 | 6.4 | 0.00 | 0.00 | 0.00 | 85 | 1018.0 |
| 20260510051511 | 8 | 32 | 0.0 | 4.8 | 0.00 | 0.00 | 0.00 | 85 | 1018.1 |
| 20260510051008 | 8 | 55 | 0.0 | 3.2 | 0.00 | 0.00 | 0.00 | 85 | 1018.0 |
| 20260510050510 | 8 | 105 | 0.0 | 9.7 | 0.00 | 0.00 | 0.00 | 85 | 1018.0 |
| 20260510050017 | 8 | 66 | 1.6 | 9.7 | 0.00 | 0.00 | 0.00 | 85 | 1018.0 |
| 20260510045508 | 8 | 57 | 0.0 | 9.7 | 0.00 | 0.00 | 0.00 | 85 | 1017.9 |
| 20260510045009 | 8 | 11 | 0.0 | 9.7 | 0.00 | 0.00 | 0.00 | 85 | 1017.8 |
| 20260510044524 | 8 | 46 | 0.0 | 9.7 | 0.00 | 0.00 | 0.00 | 85 | 1017.9 |
| 20260510044008 | 8 | 60 | 0.0 | 6.4 | 0.00 | 0.00 | 0.00 | 85 | 1017.9 |
| 20260510043511 | 8 | 35 | 1.6 | 6.4 | 0.00 | 0.00 | 0.00 | 85 | 1017.9 |
| 20260510043010 | 8 | 72 | 0.0 | 6.4 | 0.00 | 0.00 | 0.00 | 85 | 1017.9 |
| 20260510042508 | 8 | 42 | 0.0 | 11.3 | 0.00 | 0.00 | 0.00 | 85 | 1017.9 |
| 20260510042005 | 8 | 91 | 0.0 | 11.3 | 0.00 | 0.00 | 0.00 | 85 | 1017.8 |
| 20260510041509 | 8 | 185 | 0.0 | 4.8 | 0.00 | 0.00 | 0.00 | 85 | 1017.9 |
| 20260510041006 | 8 | 15 | 0.0 | 4.8 | 0.00 | 0.00 | 0.00 | 85 | 1017.9 |
| 20260510040508 | 8 | 68 | 0.0 | 4.8 | 0.00 | 0.00 | 0.00 | 85 | 1017.9 |
| 20260510040016 | 8 | 360 | 0.0 | 3.2 | 0.00 | 0.00 | 0.00 | 85 | 1018.1 |
| 20260510035507 | 8 | 236 | 0.0 | 3.2 | 0.00 | 0.00 | 0.00 | 85 | 1018.1 |
| 20260510035007 | 8 | 112 | 0.0 | 6.4 | 0.00 | 0.00 | 0.00 | 85 | 1018.1 |
| 20260510034519 | 8 | 266 | 0.0 | 6.4 | 0.00 | 0.00 | 0.00 | 85 | 1018.2 |
| 20260510034009 | 8 | 255 | 0.0 | 1.6 | 0.00 | 0.00 | 0.00 | 85 | 1018.2 |
| 20260510033510 | 8 | 11 | 0.0 | 4.8 | 0.00 | 0.00 | 0.00 | 85 | 1018.2 |
| 20260510033024 | 8 | 345 | 0.0 | 8.0 | 0.00 | 0.00 | 0.00 | 85 | 1018.2 |
| 20260510032510 | 8 | 94 | 0.0 | 8.0 | 0.00 | 0.00 | 0.00 | 85 | 1018.2 |
| 20260510032012 | 8 | 39 | 0.0 | 4.8 | 0.00 | 0.00 | 0.00 | 84 | 1018.3 |
| 20260510031529 | 8 | 77 | 0.0 | 8.0 | 0.00 | 0.00 | 0.00 | 84 | 1018.3 |
| 20260510031006 | 8 | 245 | 0.0 | 8.0 | 0.00 | 0.00 | 0.00 | 84 | 1018.4 |
| 20260510030505 | 8 | 60 | 0.0 | 6.4 | 0.00 | 0.00 | 0.00 | 85 | 1018.4 |
| 20260510030014 | 8 | 259 | 0.0 | 6.4 | 0.00 | 0.00 | 0.00 | 85 | 1018.3 |
| 20260510025508 | 8 | 262 | 0.0 | 4.8 | 0.00 | 0.00 | 0.00 | 85 | 1018.3 |
| 20260510025008 | 8 | 98 | 0.0 | 9.7 | 0.00 | 0.00 | 0.00 | 85 | 1018.3 |
| 20260510024518 | 8 | 73 | 0.0 | 9.7 | 0.00 | 0.00 | 0.00 | 85 | 1018.3 |
| 20260510024008 | 8 | 86 | 0.0 | 6.4 | 0.00 | 0.00 | 0.00 | 85 | 1018.3 |
| 20260510023508 | 8 | 141 | 0.0 | 6.4 | 0.00 | 0.00 | 0.00 | 85 | 1018.3 |
| 20260510023022 | 8 | 233 | 0.0 | 4.8 | 0.00 | 0.00 | 0.00 | 85 | 1018.3 |
| 20260510022513 | 8 | 205 | 0.0 | 1.6 | 0.00 | 0.00 | 0.00 | 85 | 1018.3 |
| 20260510022008 | 8 | 85 | 0.0 | 0.0 | 0.00 | 0.00 | 0.00 | 85 | 1018.3 |
| 20260510021533 | 8 | 167 | 0.0 | 6.4 | 0.00 | 0.00 | 0.00 | 85 | 1018.4 |
| 20260510021008 | 8 | 59 | 0.0 | 8.0 | 0.00 | 0.00 | 0.00 | 85 | 1018.4 |
| 20260510020507 | 9 | 280 | 0.0 | 8.0 | 0.00 | 0.00 | 0.00 | 84 | 1018.2 |
| 20260510020030 | 9 | 129 | 0.0 | 6.4 | 0.00 | 0.00 | 0.00 | 84 | 1018.2 |
| 20260510015510 | 9 | 233 | 0.0 | 6.4 | 0.00 | 0.00 | 0.00 | 84 | 1018.2 |
| 20260510015008 | 9 | 84 | 0.0 | 0.0 | 0.00 | 0.00 | 0.00 | 83 | 1018.3 |
| 20260510014518 | 9 | 266 | 0.0 | 0.0 | 0.00 | 0.00 | 0.00 | 83 | 1018.4 |
| 20260510014008 | 9 | 46 | 0.0 | 0.0 | 0.00 | 0.00 | 0.00 | 82 | 1018.3 |
| 20260510013506 | 9 | 72 | 0.0 | 0.0 | 0.00 | 0.00 | 0.00 | 82 | 1018.3 |
| 20260510013003 | 9 | 105 | 0.0 | 0.0 | 0.00 | 0.00 | 0.00 | 81 | 1018.4 |
| 20260510012505 | 9 | 60 | 0.0 | 0.0 | 0.00 | 0.00 | 0.00 | 80 | 1018.5 |
| 20260510012006 | 9 | 293 | 0.0 | 0.0 | 0.00 | 0.00 | 0.00 | 79 | 1018.6 |
| 20260510011505 | 9 | 158 | 0.0 | 0.0 | 0.00 | 0.00 | 0.00 | 77 | 1018.6 |
| 20260510011004 | 10 | 82 | 0.0 | 0.0 | 0.00 | 0.00 | 0.00 | 75 | 1018.4 |
| 20260510010503 | 10 | 245 | 0.0 | 0.0 | 0.00 | 0.00 | 0.00 | 74 | 1018.3 |
| 20260510010008 | 10 | 80 | 0.0 | 0.0 | 0.00 | 0.00 | 0.00 | 73 | 1018.3 |
| 20260510005505 | 10 | 236 | 0.0 | 0.0 | 0.00 | 0.00 | 0.00 | 72 | 1018.3 |
| 20260510005005 | 10 | 53 | 0.0 | 0.0 | 0.00 | 0.00 | 0.00 | 70 | 1018.3 |
| 20260510004516 | 10 | 359 | 0.0 | 0.0 | 0.00 | 0.00 | 0.00 | 68 | 1018.4 |
| 20260510004009 | 10 | 110 | 0.0 | 0.0 | 0.00 | 0.00 | 0.00 | 67 | 1018.4 |
| 20260510003507 | 10 | 41 | 0.0 | 0.0 | 0.00 | 0.00 | 0.00 | 66 | 1018.4 |
| 20260510003019 | 10 | 71 | 0.0 | 8.0 | 0.00 | 0.00 | 0.00 | 66 | 1018.4 |
| 20260510002506 | 10 | 333 | 1.6 | 11.3 | 0.00 | 0.00 | 0.00 | 65 | 1018.4 |
| 20260510002008 | 10 | 4 | 1.6 | 11.3 | 0.00 | 0.00 | 0.00 | 64 | 1018.4 |
| 20260510001510 | 10 | 26 | 0.0 | 8.0 | 0.00 | 0.00 | 0.00 | 63 | 1018.4 |
| 20260510001003 | 11 | 78 | 0.0 | 8.0 | 0.00 | 0.00 | 0.00 | 63 | 1018.4 |
| 20260510000502 | 11 | 267 | 0.0 | 11.3 | 0.00 | 0.00 | 0.00 | 63 | 1018.3 |
| 20260510000005 | 11 | 318 | 1.6 | 11.3 | 0.00 | 0.00 | 0.00 | 63 | 1018.3 |
| 20260509235504 | 11 | 30 | 0.0 | 0.0 | 0.00 | 0.00 | 0.00 | 63 | 1018.3 |
| 20260509235003 | 11 | 81 | 0.0 | 0.0 | 0.00 | 0.00 | 0.00 | 63 | 1018.3 |
| 20260509234513 | 11 | 26 | 0.0 | 0.0 | 0.00 | 0.00 | 0.00 | 63 | 1018.3 |
| 20260509234005 | 11 | 56 | 0.0 | 0.0 | 0.00 | 0.00 | 0.00 | 63 | 1018.2 |
| 20260509233504 | 11 | 37 | 0.0 | 3.2 | 0.00 | 0.00 | 0.00 | 63 | 1018.1 |
| 20260509233018 | 11 | 254 | 0.0 | 4.8 | 0.00 | 0.00 | 0.00 | 62 | 1018.1 |
| 20260509232504 | 11 | 212 | 0.0 | 4.8 | 0.00 | 0.00 | 0.00 | 62 | 1018.1 |
| 20260509232006 | 11 | 110 | 0.0 | 0.0 | 0.00 | 0.00 | 0.00 | 61 | 1018.0 |
| 20260509231521 | 11 | 114 | 0.0 | 0.0 | 0.00 | 0.00 | 0.00 | 61 | 1018.1 |
| 20260509231006 | 11 | 25 | 0.0 | 0.0 | 0.00 | 0.00 | 0.00 | 62 | 1018.1 |
| 20260509230507 | 11 | 129 | 0.0 | 0.0 | 0.00 | 0.00 | 0.00 | 63 | 1018.1 |
| 20260509230022 | 11 | 56 | 0.0 | 0.0 | 0.00 | 0.00 | 0.00 | 63 | 1018.1 |
| 20260509225504 | 11 | 56 | 0.0 | 0.0 | 0.00 | 0.00 | 0.00 | 63 | 1018.1 |
| 20260509225003 | 11 | 56 | 0.0 | 0.0 | 0.00 | 0.00 | 0.00 | 63 | 1018.1 |
| 20260509224506 | 11 | 72 | 0.0 | 0.0 | 0.00 | 0.00 | 0.00 | 64 | 1018.1 |
| 20260509224008 | 10 | 72 | 0.0 | 0.0 | 0.00 | 0.00 | 0.00 | 65 | 1018.0 |
| 20260509223510 | 10 | 72 | 0.0 | 0.0 | 0.00 | 0.00 | 0.00 | 66 | 1018.0 |
| 20260509223009 | 10 | 72 | 0.0 | 0.0 | 0.00 | 0.00 | 0.00 | 65 | 1017.9 |
| 20260509222504 | 10 | 72 | 0.0 | 0.0 | 0.00 | 0.00 | 0.00 | 65 | 1017.9 |
| 20260509222012 | 10 | 72 | 0.0 | 0.0 | 0.00 | 0.00 | 0.00 | 64 | 1018.0 |
| 20260509221527 | 11 | 72 | 0.0 | 0.0 | 0.00 | 0.00 | 0.00 | 65 | 1018.0 |
| 20260509221006 | 11 | 72 | 0.0 | 0.0 | 0.00 | 0.00 | 0.00 | 62 | 1017.9 |
| 20260509220507 | 11 | 72 | 0.0 | 0.0 | 0.00 | 0.00 | 0.00 | 62 | 1017.9 |
| 20260509220017 | 11 | 72 | 0.0 | 0.0 | 0.00 | 0.00 | 0.00 | 62 | 1018.0 |
| 20260509215511 | 11 | 72 | 0.0 | 0.0 | 0.00 | 0.00 | 0.00 | 60 | 1018.0 |
| 20260509215007 | 12 | 72 | 0.0 | 0.0 | 0.00 | 0.00 | 0.00 | 59 | 1018.0 |
| 20260509214531 | 12 | 72 | 0.0 | 0.0 | 0.00 | 0.00 | 0.00 | 58 | 1018.2 |
| 20260509214011 | 12 | 72 | 0.0 | 0.0 | 0.00 | 0.00 | 0.00 | 57 | 1018.2 |
| 20260509213503 | 12 | 72 | 0.0 | 0.0 | 0.00 | 0.00 | 0.00 | 56 | 1018.2 |
| 20260509213006 | 12 | 43 | 0.0 | 0.0 | 0.00 | 0.00 | 0.00 | 55 | 1018.2 |
| 20260509212504 | 13 | 43 | 0.0 | 0.0 | 0.00 | 0.00 | 0.00 | 55 | 1018.1 |
| 20260509212006 | 13 | 44 | 0.0 | 0.0 | 0.00 | 0.00 | 0.00 | 54 | 1018.0 |
| 20260509211528 | 13 | 44 | 0.0 | 0.0 | 0.00 | 0.00 | 0.00 | 54 | 1017.9 |
| 20260509211005 | 13 | 36 | 0.0 | 0.0 | 0.00 | 0.00 | 0.00 | 53 | 1017.8 |
| 20260509210508 | 13 | 97 | 0.0 | 0.0 | 0.00 | 0.00 | 0.00 | 53 | 1017.8 |
| 20260509210033 | 13 | 33 | 0.0 | 0.0 | 0.00 | 0.00 | 0.00 | 54 | 1017.7 |
| 20260509205510 | 13 | 35 | 0.0 | 0.0 | 0.00 | 0.00 | 0.00 | 53 | 1017.6 |
| 20260509205006 | 13 | 98 | 0.0 | 0.0 | 0.00 | 0.00 | 0.00 | 53 | 1017.7 |
| 20260509204540 | 14 | 98 | 0.0 | 0.0 | 0.00 | 0.00 | 0.00 | 53 | 1017.6 |
| 20260509203510 | 14 | 331 | 0.0 | 0.0 | 0.00 | 0.00 | 0.00 | 52 | 1017.5 |
| 20260509203023 | 15 | 44 | 0.0 | 0.0 | 0.00 | 0.00 | 0.00 | 51 | 1017.5 |
| 20260509202510 | 15 | 143 | 0.0 | 0.0 | 0.00 | 0.00 | 0.00 | 51 | 1017.4 |
| 20260509202011 | 15 | 35 | 0.0 | 0.0 | 0.00 | 0.00 | 0.00 | 51 | 1017.3 |
| 20260509201508 | 15 | 96 | 0.0 | 0.0 | 0.00 | 0.00 | 0.00 | 50 | 1017.3 |
| 20260509201005 | 15 | 70 | 0.0 | 0.0 | 0.00 | 0.00 | 0.00 | 50 | 1017.2 |
| 20260509200508 | 15 | 91 | 0.0 | 0.0 | 0.00 | 0.00 | 0.00 | 49 | 1017.3 |
| 20260509200011 | 15 | 91 | 0.0 | 1.6 | 0.00 | 0.00 | 0.00 | 49 | 1017.2 |
| 20260509195506 | 15 | 39 | 0.0 | 3.2 | 0.00 | 0.00 | 0.00 | 49 | 1017.2 |
| 20260509195010 | 15 | 96 | 0.0 | 11.3 | 0.00 | 0.00 | 0.00 | 49 | 1017.1 |
| 20260509194516 | 15 | 30 | 1.6 | 11.3 | 0.00 | 0.00 | 0.00 | 48 | 1017.1 |
| 20260509194009 | 16 | 34 | 0.0 | 9.7 | 0.00 | 0.00 | 0.00 | 48 | 1017.0 |
| 20260509193509 | 16 | 78 | 0.0 | 1.6 | 0.00 | 0.00 | 0.00 | 47 | 1017.0 |
| 20260509193032 | 16 | 250 | 0.0 | 3.2 | 0.00 | 0.00 | 0.00 | 47 | 1016.9 |
| 20260509192510 | 16 | 68 | 0.0 | 3.2 | 0.00 | 0.00 | 0.00 | 46 | 1016.9 |
| 20260509192009 | 16 | 27 | 0.0 | 0.0 | 0.00 | 0.00 | 0.00 | 46 | 1016.9 |
| 20260509191522 | 16 | 15 | 0.0 | 0.0 | 0.00 | 0.00 | 0.00 | 46 | 1017.0 |
| 20260509191015 | 16 | 27 | 0.0 | 3.2 | 0.00 | 0.00 | 0.00 | 45 | 1017.0 |
| 20260509190507 | 17 | 24 | 0.0 | 3.2 | 0.00 | 0.00 | 0.00 | 45 | 1016.8 |
| 20260509190027 | 17 | 85 | 0.0 | 1.6 | 0.00 | 0.00 | 0.00 | 44 | 1016.8 |
| 20260509185515 | 17 | 35 | 0.0 | 8.0 | 0.00 | 0.00 | 0.00 | 43 | 1016.8 |
| 20260509185007 | 17 | 30 | 0.0 | 8.0 | 0.00 | 0.00 | 0.00 | 43 | 1016.8 |
| 20260509184528 | 17 | 275 | 0.0 | 6.4 | 0.00 | 0.00 | 0.00 | 42 | 1016.7 |
| 20260509184012 | 18 | 180 | 0.0 | 6.4 | 0.00 | 0.00 | 0.00 | 42 | 1016.6 |
| 20260509183507 | 18 | 96 | 0.0 | 4.8 | 0.00 | 0.00 | 0.00 | 42 | 1016.4 |
| 20260509183018 | 18 | 342 | 0.0 | 1.6 | 0.00 | 0.00 | 0.00 | 42 | 1016.4 |
| 20260509182509 | 18 | 26 | 0.0 | 8.0 | 0.00 | 0.00 | 0.00 | 41 | 1016.3 |
| 20260509182011 | 18 | 207 | 0.0 | 9.7 | 0.00 | 0.00 | 0.00 | 42 | 1016.3 |
| 20260509181520 | 18 | 38 | 1.6 | 9.7 | 0.00 | 0.00 | 0.00 | 42 | 1016.2 |
| 20260509180511 | 18 | 99 | 0.0 | 14.5 | 0.00 | 0.00 | 0.00 | 42 | 1016.3 |
| 20260509180024 | 18 | 1 | 0.0 | 0.0 | 0.00 | 0.00 | 0.00 | 42 | 1016.3 |
| 20260509175514 | 19 | 39 | 6.4 | 14.5 | 0.00 | 0.00 | 0.00 | 42 | 1016.2 |
| 20260509175016 | 19 | 0.0 | 0.0 | 0.00 | 0.00 | 0.00 | 1016.2 | ||
| 20260509174531 | 19 | 0.0 | 0.0 | 0.00 | 0.00 | 0.00 | 40 | 1016.2 | |
| 20260509174013 | 19 | 293 | 0.0 | 6.4 | 0.00 | 0.00 | 0.00 | 40 | 1016.1 |
| 20260509173510 | 19 | 14 | 0.0 | 6.4 | 0.00 | 0.00 | 0.00 | 40 | 1016.1 |
| 20260509173033 | 20 | 39 | 0.0 | 0.0 | 0.00 | 0.00 | 0.00 | 41 | 1016.0 |
| 20260509172510 | 20 | 72 | 1.6 | 6.4 | 0.00 | 0.00 | 0.00 | 41 | 1016.0 |
| 20260509172013 | 20 | 311 | 0.0 | 9.7 | 0.00 | 0.00 | 0.00 | 41 | 1016.0 |
| 20260509171520 | 20 | 46 | 0.0 | 6.4 | 0.00 | 0.00 | 0.00 | 41 | 1016.1 |
| 20260509171013 | 20 | 77 | 1.6 | 14.5 | 0.00 | 0.00 | 0.00 | 40 | 1016.0 |
| 20260509170509 | 20 | 98 | 1.6 | 12.9 | 0.00 | 0.00 | 0.00 | 40 | 1016.1 |
| 20260509170026 | 20 | 16 | 1.6 | 9.7 | 0.00 | 0.00 | 0.00 | 40 | 1016.1 |
| 20260509165514 | 20 | 38 | 0.0 | 0.0 | 0.00 | 0.00 | 0.00 | 40 | 1016.1 |
| 20260509165014 | 20 | 37 | 0.0 | 4.8 | 0.00 | 0.00 | 0.00 | 39 | 1016.2 |
| 20260509164530 | 20 | 80 | 0.0 | 11.3 | 0.00 | 0.00 | 0.00 | 39 | 1016.2 |